DW7214 Weather Reports


Display with metric or nautical units.
time (UTC)temp
F
wind
direction
speed
MPH
gust
MPH
rain 1hr
in
rain 24hr
in
rain mn
in
humidity
%
barometer
mb
20260904031504 55 9 0.0 0.0 0.07 0.90 0.90 92 1010.4
20260904030005 56 9 0.0 0.0 0.08 0.89 0.89 91 1010.3
20260904024510 56 9 0.0 2.0 0.11 0.89 0.89 90 1010.2
20260904023013 57 40 0.0 0.0 0.09 0.86 0.86 91 1010.2
20260904021518 57 40 0.0 0.0 0.06 0.83 0.83 91 1010.1
20260904020004 57 40 0.0 0.0 0.04 0.81 0.81 91 1010.1
20260904014506 57 40 0.0 0.0 0.02 0.78 0.78 89 1010.0
20260904013012 58 40 0.0 2.0 0.02 0.77 0.77 90 1010.0
20260904011516 58 51 1.0 4.0 0.02 0.77 0.77 89 1009.9
20260904010024 58 37 1.0 4.0 0.03 0.77 0.77 89 1010.1
20260904004505 58 280 0.0 0.0 0.03 0.76 0.76 90 1010.0
20260904003008 58 280 0.0 0.0 0.02 0.75 0.75 89 1010.0
20260904001515 58 90 0.0 0.0 0.02 0.75 0.75 89 1010.1
20260904000020 58 121 0.0 0.0 0.01 0.74 0.74 86 1010.3
20260903234528 58 194 0.0 2.0 0.00 0.73 0.73 85 1010.3
20260903233008 58 180 0.0 2.0 0.00 0.73 0.73 86 1010.2
20260903231511 58 57 1.0 3.0 0.00 0.73 0.73 84 1010.3
20260903230022 58 36 0.0 3.0 0.01 0.74 0.73 87 1010.3
20260903224523 57 108 0.0 3.0 0.01 0.74 0.73 88 1010.4
20260903223005 56 34 0.0 3.0 0.03 0.74 0.73 89 1010.6
20260903221508 57 37 1.0 3.0 0.04 0.74 0.73 90 1010.7
20260903220022 57 65 0.0 3.0 0.03 0.74 0.72 90 1010.7
20260903214525 57 118 1.0 5.0 0.04 0.74 0.72 88 1010.7
20260903213030 57 87 1.0 4.0 0.02 0.81 0.70 88 1010.5
20260903211509 58 153 0.0 3.0 0.01 0.83 0.69 89 1010.6
20260903210014 58 57 0.0 5.0 0.01 0.83 0.69 90 1010.5
20260903204517 57 257 1.0 6.0 0.03 0.82 0.68 89 1010.7
20260903203027 58 121 2.0 8.0 0.09 0.82 0.68 88 1010.7
20260903201532 57 38 1.0 4.0 0.13 0.82 0.68 1010.6
20260903200033 56 96 1.0 4.0 0.19 0.82 0.68 90 1010.6
20260903194533 56 113 0.0 6.0 0.18 0.79 0.65 92 1010.7
20260903193030 56 117 0.0 7.0 0.12 0.73 0.58 92 1010.6
20260903191544 56 109 2.0 5.0 0.08 0.70 0.55 91 1010.6
20260903190030 58 214 2.0 10.0 0.02 0.65 0.49 87 1010.8
20260903184513 59 146 4.0 9.0 0.00 0.63 0.47 86 1010.4
20260903183033 58 38 0.0 8.0 0.00 0.65 0.47 87 1010.4
20260903181528 57 44 1.0 6.0 0.00 0.73 0.47 89 1010.6
20260903180036 58 188 3.0 10.0 0.00 0.76 0.47 88 1010.5
20260903174520 58 146 2.0 5.0 0.00 0.76 0.47 88 1010.4
20260903173018 58 9 1.0 4.0 0.00 0.77 0.47 90 1010.4
20260903171528 57 161 2.0 8.0 0.01 0.81 0.47 91 1010.3
20260903170031 57 111 1.0 6.0 0.04 0.84 0.47 91 1010.3
20260903164530 57 98 1.0 5.0 0.05 0.86 0.47 93 1010.4
20260903163019 56 77 0.0 3.0 0.06 0.90 0.47 94 1010.6
20260903161533 55 109 1.0 2.0 0.10 0.93 0.46 94 1010.7
20260903160027 55 186 0.0 8.0 0.10 0.94 0.43 93 1011.0
20260903154533 55 111 0.0 3.0 0.11 0.95 0.42 94 1011.0
20260903153030 54 215 0.0 4.0 0.14 0.95 0.41 94 1011.0
20260903151522 54 103 1.0 6.0 0.10 0.90 0.36 94 1011.0
20260903150029 54 135 1.0 4.0 0.07 0.87 0.33 94 1010.9
20260903144530 54 120 3.0 11.0 0.06 0.85 0.31 93 1010.8
20260903143038 54 90 2.0 10.0 0.03 0.81 0.27 94 1010.5
20260903141532 54 134 1.0 6.0 0.02 0.80 0.26 94 1010.2
20260903140026 54 76 1.0 5.0 0.04 0.80 0.26 94 1010.2
20260903134528 54 188 0.0 4.0 0.04 0.79 0.25 94 1010.1
20260903133031 54 168 2.0 6.0 0.05 0.78 0.24 94 1010.0
20260903131536 54 114 2.0 8.0 0.08 0.78 0.24 94 1009.8
20260903130024 54 95 0.0 3.0 0.15 0.76 0.22 94 1009.9
20260903124547 54 90 1.0 6.0 0.16 0.75 0.21 94 1009.9
20260903123029 54 124 1.0 4.0 0.16 0.73 0.19 93 1010.0
20260903121533 54 105 0.0 9.0 0.14 0.70 0.16 93 1010.2
20260903120024 55 119 0.0 6.0 0.07 0.61 0.07 93 1010.2
20260903114526 55 115 0.0 3.0 0.05 0.58 0.05 93 1010.2
20260903113032 55 181 1.0 7.0 0.03 0.57 0.03 92 1010.2
20260903111532 55 148 1.0 8.0 0.02 0.56 0.02 92 1010.2
20260903110019 55 148 1.0 6.0 0.00 0.54 0.00 92 1010.2
20260903104527 55 169 2.0 8.0 0.00 0.54 0.00 92 1010.0
20260903103030 55 175 4.0 10.0 0.00 0.54 0.00 91 1010.1
20260903101535 55 119 1.0 5.0 0.00 0.54 0.00 91 1010.2
20260903100023 55 173 0.0 7.0 0.00 0.54 0.00 91 1010.1
20260903094524 55 160 2.0 7.0 0.00 0.54 0.00 91 1010.1
20260903093004 55 5 1.0 6.0 0.00 0.54 0.00 92 1010.1
20260903091512 55 205 0.0 6.0 0.00 0.54 0.00 92 1010.2
20260903090011 55 166 1.0 5.0 0.00 0.54 0.00 91 1010.2
20260903084520 55 96 2.0 9.0 0.00 0.54 0.00 92 1010.4
20260903083028 55 121 2.0 5.0 0.00 0.54 0.00 91 1010.4
20260903081504 55 134 1.0 5.0 0.00 0.54 0.00 91 1010.4
20260903080009 56 116 2.0 7.0 0.00 0.54 0.00 91 1010.6
20260903074518 56 165 3.0 7.0 0.00 0.54 0.00 91 1010.6
20260903073028 56 124 3.0 7.0 0.00 0.54 0.00 91 1010.6
20260903071505 56 169 1.0 9.0 0.00 0.54 0.00 91 1010.4
20260903070008 56 124 2.0 6.0 0.00 0.54 0.00 92 1010.3
20260903064512 55 145 1.0 4.0 0.00 0.54 0.54 92 1010.3
20260903063020 56 140 1.0 4.0 0.00 0.54 0.54 92 1010.4
20260903061527 56 123 0.0 4.0 0.00 0.54 0.54 92 1010.5
20260903060005 56 99 0.0 4.0 0.00 0.54 0.54 92 1010.4
20260903054512 55 121 0.0 2.0 0.00 0.54 0.54 91 1010.6
20260903053018 55 126 0.0 2.0 0.00 0.54 0.54 91 1010.6
20260903051526 55 103 0.0 2.0 0.00 0.54 0.54 91 1010.5
20260903050035 55 108 0.0 0.0 0.00 0.54 0.54 92 1010.5
20260903044509 54 108 0.0 2.0 0.00 0.54 0.54 92 1010.5
20260903043015 54 123 0.0 0.0 0.00 0.54 0.54 91 1010.2
20260903041517 54 116 0.0 0.0 0.00 0.54 0.54 89 1010.2
20260903040030 55 119 0.0 1.0 0.00 0.54 0.54 88 1010.1
20260903034530 55 149 0.0 3.0 0.00 0.54 0.54 89 1009.9
20260903033013 55 203 2.0 3.0 0.00 0.54 0.54 89 1009.7